Glendive, MT

2:39 AM MDT on October 17, 2019 (GMT -0600)
Dawson Community

Weather History for KGDV - September, 2019

Change the Weather History Date:

Friday, September 20, 2019

  Actual Average Record
Temperature  
Mean Temperature 62 °F 59 °F  
Max Temperature 71 °F 73 °F 90 °F (2009)
Min Temperature 53 °F 45 °F 32 °F (1995)
Degree Days  
Heating Degree Days 3 6  
Month to date heating degree days 81 30  
Year to date heating degree days 5729 4322  
Since 1 July heating degree days 163 30  
Cooling Degree Days 0 0  
Month to date cooling degree days 39 6  
Year to date cooling degree days 465 382  
Since 1 July cooling degree days 465 382  
Growing Degree Days 12 (Base 50)    
Moisture  
Dew Point 55 °F    
Average Humidity 80    
Maximum Humidity 94    
Minimum Humidity 65    
Precipitation  
Precipitation 0.09 in 0.04 in 0.78 in (2018)
Month to date precipitation 4.62 0.81  
Year to date precipitation 15.69 11.20  
Sea Level Pressure  
Sea Level Pressure 29.74 in    
Wind  
Wind Speed 14 mph (NNW)    
Max Wind Speed 25 mph    
Max Gust Speed 31 mph    
Visibility 10 miles    
Events Rain , Thunderstorm    
T = Trace of Precipitation, MM = Missing Value Source: NWS Daily Summary

Daily Weather History Graph

Daily Weather History Graph

Search for Another Location

Airport or City:

Astronomy

Sep. 20, 2019 Rise Set
Actual Time 6:43 AM MDT 7:01 PM MDT
Civil Twilight 6:12 AM MDT 7:31 PM MDT
Nautical Twilight 5:36 AM MDT 8:07 PM MDT
Astronomical Twilight 4:59 AM MDT 8:44 PM MDT
Moon 10:29 PM MDT (9/20) 1:13 PM MDT (9/20)
Length of Visible Light 13h 19m
Length of Day
12h 18m
Waning Gibbous, 64% of the Moon is Illuminated
Sep 20
Waning Gibbous
Sep 21
Last Quarter
Sep 28
New
Oct 5
First Quarter
Oct 13
Full

Hourly Weather History & Observations

Time (MDT) Temp. Dew Point Humidity Pressure Visibility Wind Dir Wind Speed Gust Speed Precip Events Conditions
12:56 AM 60.1 °F 53.1 °F 78% 29.71 in 10.0 mi NNW 25.3 mph - N/A   Clear
1:56 AM 59.0 °F 53.1 °F 81% 29.72 in 10.0 mi NNW 12.7 mph - N/A   Clear
2:56 AM 57.9 °F 53.1 °F 84% 29.69 in 10.0 mi NNW 17.3 mph 23.0 mph N/A   Clear
3:56 AM 57.0 °F 54.0 °F 89% 29.69 in 10.0 mi WNW 8.1 mph - 0.00 in   Clear
4:56 AM 55.0 °F 53.1 °F 93% 29.72 in 10.0 mi NNW 4.6 mph - N/A   Clear
5:56 AM 55.9 °F 53.1 °F 90% 29.76 in 10.0 mi West 12.7 mph - N/A   Clear
6:56 AM 57.0 °F 53.1 °F 87% 29.81 in 10.0 mi SW 8.1 mph - N/A   Clear
7:56 AM 55.9 °F 53.1 °F 90% 29.79 in 10.0 mi NW 11.5 mph - N/A   Scattered Clouds
8:56 AM 57.0 °F 53.1 °F 87% 29.76 in 10.0 mi North 10.4 mph - 0.00 in   Mostly Cloudy
9:56 AM 60.1 °F 55.0 °F 83% 29.77 in 10.0 mi North 6.9 mph - N/A   Clear
10:56 AM 66.0 °F 57.0 °F 73% 29.76 in 10.0 mi North 10.4 mph 16.1 mph N/A   Clear
11:56 AM 69.1 °F 57.9 °F 68% 29.73 in 10.0 mi North 11.5 mph - N/A   Clear
12:56 PM 70.0 °F 57.9 °F 65% 29.75 in 10.0 mi ENE 5.8 mph - N/A   Mostly Cloudy
1:56 PM 68.0 °F 57.9 °F 70% 29.74 in 10.0 mi NNW 15.0 mph - N/A   Overcast
2:56 PM 66.0 °F 57.9 °F 75% 29.73 in 10.0 mi North 17.3 mph - N/A   Overcast
3:56 PM 68.0 °F 57.0 °F 68% 29.72 in 10.0 mi North 18.4 mph - N/A   Overcast
4:21 PM 66.2 °F 55.4 °F 68% 29.75 in 10.0 mi North 17.3 mph - N/A   Overcast
4:56 PM 66.0 °F 55.9 °F 70% 29.73 in 10.0 mi North 11.5 mph - N/A   Overcast
5:13 PM 66.2 °F 57.2 °F 73% 29.74 in 10.0 mi North 11.5 mph - N/A   Overcast
5:56 PM 66.0 °F 57.0 °F 73% 29.71 in 10.0 mi NNE 15.0 mph - N/A   Mostly Cloudy
6:56 PM 64.9 °F 57.0 °F 75% 29.71 in 10.0 mi North 11.5 mph - N/A   Mostly Cloudy
7:56 PM 64.0 °F 57.0 °F 78% 29.73 in 10.0 mi NW 8.1 mph - N/A   Overcast
8:56 PM 62.1 °F 55.9 °F 80% 29.76 in 10.0 mi West 5.8 mph - N/A   Overcast
9:38 PM 55.4 °F 53.6 °F 94% 29.79 in 7.0 mi NW 23.0 mph 29.9 mph 0.04 in Rain , Thunderstorm Thunderstorms and Rain
9:56 PM 55.0 °F 53.1 °F 93% 29.74 in 10.0 mi NNW 12.7 mph 31.1 mph 0.09 in Rain Light Rain
10:56 PM 55.0 °F 53.1 °F 93% 29.75 in 10.0 mi WNW 10.4 mph - 0.00 in   Clear
11:56 PM 54.0 °F 52.0 °F 93% 29.74 in 10.0 mi NNW 15.0 mph - N/A   Clear